Location: �clusier
(49.9361°N, 2.7869°E)
Time: 18:30:54
(UTC+00:00)

NOAA 13 - Pass Details

Date: 03 February 2022
Orbit: 842 x 857 km, 98.5° (Epoch: 19 May)

Event Time Altitude Azimuth Distance (km) Brightness Sun altitude
Rises 06:16:31 0° 6° (N) 3,429 7.8 -10.4°
Reaches altitude 10° 06:19:19 10° 353° (N) 2,491 6.9 -9.9°
Maximum altitude 06:23:34 23° 302° (WNW) 1,725 5.8 -9.3°
Drops below altitude 10° 06:27:50 10° 252° (WSW) 2,487 6.6 -8.6°
Sets 06:30:38 0° 238° (WSW) 3,421 7.5 -8.2°
